Location: *
(31.2983°S, 151.4094°E)
Time: 14:45:59
(UTC+00:00)

SL-16 R/B - Pass Details

Date: 25 August 2019
Orbit: 842 x 848 km, 71.0° (Epoch: 20 September)

Event Time Altitude Azimuth Distance (km) Brightness Sun altitude
Exits shadow 19:35:15 11° 244° (WSW) 2,438 4.0 -10.0°
Maximum altitude 19:36:08 11° 235° (SW) 2,415 4.0 -9.8°
Drops below altitude 10° 19:37:42 10° 219° (SW) 2,495 4.2 -9.5°
Sets 19:42:26 0° 184° (S) 3,440 5.3 -8.5°
